Torna al catalogo

BREEZE-M DEB

TANK

AttivoHEO
NORAD 47243·DEBRIS·🇷🇺 Russia

Lanciato Dec 14, 2020 da Plesetsk Cosmodrome

Loading…

Prossimi Passaggi (prossime 24 ore)

TLE

AggiornatoSource: Space-Track

Epoca: Sep 13, 2026, 21:49 UTC

1 47243U 20097B   26256.90905970  .00001632  00000-0  10647-2 0  9990
2 47243  58.5505  89.4676 7320153 117.1155 332.8009  2.20830572 46163

Traccia BREEZE-M DEB in tempo reale con AllMySat

Download on the App Store